Regional Weather Roundup
Issued by NWS Upton, NY

Current Version | Previous Version | Text Only | Print | Product List | Glossary On
Versions: 1 2 3 4 5 6 7 8 9 10 11 12 13 14 15 16 17 18 19 20 21 22 23 24 25 26 27 28 29 30 31 32 33 34 35 36 37 38 39 40 41 42 43 44 45 46 47 48 49 50
000 ASUS41 KOKX 211205 RWROKX REGIONAL WEATHER ROUNDUP NATIONAL WEATHER SERVICE NEW YORK NY 800 AM EDT SUN SEP 21 2014 NOTE: "FAIR" INDICATES FEW OR NO CLOUDS BELOW 12,000 FEET WITH NO SIGNIFICANT WEATHER AND/OR OBSTRUCTIONS TO VISIBILITY. NYZ071-072-176-178-NJZ106-104-211300- NEW YORK CITY METRO AREA CITY SKY/WX TMP DP RH WIND PRES REMARKS CENTRAL PARK CLOUDY 68 66 93 CALM 29.94S FOG LAGUARDIA APRT CLOUDY 68 66 93 CALM 29.90S KENNEDY INTL PTSUNNY 69 66 90 N5 29.91S FOG NEWARK/LIBERTY PTSUNNY 69 67 93 CALM 29.90F FOG BRNX BOT. GARD N/A 66 64 94 E2 29.93S TETERBORO CLOUDY 70 64 83 CALM 29.89F FOG $$ NYZ177-179-078>081-211300- LONG ISLAND NEW YORK CITY SKY/WX TMP DP RH WIND PRES REMARKS FARMINGDALE PTSUNNY 72 70 93 SE5 29.91S ISLIP PTSUNNY 70 68 93 SE6 29.90F SHIRLEY PTSUNNY 70 67 90 SE3 29.92F WESTHAMPTON CLOUDY 71 69 93 S7 29.93F MONTAUK POINT N/A 70 68 93 S6 29.94F $$ NYZ052-065-067-211300- HUDSON VALLEY CITY SKY/WX TMP DP RH WIND PRES REMARKS WHITE PLAINS FOG 65 64 97 CALM 29.92R VSB 1/4 NEWBURGH CLOUDY 63 63 100 CALM 29.93F FOG MONTGOMERY CLOUDY 63 60 90 CALM 29.92F POUGHKEEPSIE CLOUDY 65 62 90 CALM 29.91F FOG ALBANY CLOUDY 65 60 84 S14G28 29.88S $$ NJZ001-105-106-008-010-013-015-019>022-104-211300- NEW JERSEY CITY SKY/WX TMP DP RH WIND PRES REMARKS NEWARK/LIBERTY PTSUNNY 69 67 93 CALM 29.90F FOG TETERBORO CLOUDY 70 64 83 CALM 29.89F FOG CALDWELL CLOUDY 65 63 93 CALM 29.92S FOG MORRISTOWN CLOUDY 66 66 100 CALM 29.92F FOG SOMERVILLE CLOUDY 65 63 93 CALM 29.90S FOG LINDEN CLOUDY 71 69 95 CALM 29.92F FOG SUSSEX CLOUDY 64 62 93 CALM 29.92S FOG ANDOVER N/A 63 60 90 NW3 29.92S TRENTON CLOUDY 65 63 93 CALM 29.90F FOG MILLVILLE CLOUDY 67 65 93 CALM 29.88F ATLANTIC CITY PTSUNNY 66 66 100 CALM 29.89S FOG WRIGHTSTOWN FOG 64 64 100 VRB6 29.88S VSB 1 TOMS RIVER CLOUDY 66 64 94 CALM 29.89F VSB 1/2 BELMAR CLOUDY 66 63 88 NW5 29.90S VSB<1/4 $$ PAZ047>061-062-071-211300- EASTERN PENNSYLVANIA CITY SKY/WX TMP DP RH WIND PRES REMARKS PHILADELPHIA PTSUNNY 68 65 90 NE6 29.90F FOG ALLENTOWN CLOUDY 62 59 90 CALM 29.92S FOG SCRANTON SUNNY 59 57 93 CALM 29.90F FOG $$ CTZ002-004>006-009-010-012-RIZ004-006-007-MAZ004-011-015-211300- SOUTHERN NEW ENGLAND IN CT CITY SKY/WX TMP DP RH WIND PRES REMARKS BRADLEY INTL LGT RAIN 63 60 90 NW3 29.91F VSB 1 HARTFORD LGT RAIN 64 62 93 SE5 29.92F FOG DANBURY FOG 64 63 96 CALM 29.94S VSB 3/4 WTRBRY/OXFORD FOG 64 63 94 CALM 29.95S VSB 1/4 BRIDGEPORT PTSUNNY 70 68 93 NW3 29.91S MERIDEN N/A 64 62 93 NW3 29.93R FOG NEW HAVEN PTSUNNY 72 68 87 S5 29.92S CHESTER CLOUDY 70 70 100 S9 29.94S FOG GROTON PTSUNNY 70 68 93 S10 29.92F WILLIMANTIC CLOUDY 63 61 93 MISG 29.94F FOG IN RI CITY SKY/WX TMP DP RH WIND PRES REMARKS PROVIDENCE PTSUNNY 71 67 87 S9 29.95F BLOCK ISLAND PTSUNNY 72 66 83 SE12 29.94F WESTERLY CLOUDY 70 67 90 SE6 29.94F IN MA CITY SKY/WX TMP DP RH WIND PRES REMARKS BOSTON PTSUNNY 69 64 84 S7 29.94F WORCESTER CLOUDY 64 63 96 SW9 29.95F WESTFIELD FOG 61 59 93 CALM 29.93S VSB 1 PROVINCETOWN PTSUNNY 68 63 83 S14 29.96F NANTUCKET CLOUDY 67 64 90 SE8 29.98F $$ ANZ330-335-338-340-345-350-353-355-211300- COASTAL MARINE OBSERVATIONS STATION/POSITION TIME SKY/WX TEMP WIND PRES VSBY WAVE AIR SEA DIR/SP/G HT/PER (UTC) (F) (DEG/KT/KT) (MB) (MI) (FT/S) NY HARB ENTRANCE 1200 71 70 100/ 2/ 4 1012.8 4/ 7 4S FIRE IS 1200 69 N/A 5/ 8 20S FIRE ISLAND 1200 70 69 190/ 4/ 8 1013.1 4/ 7 23SW MTP 1200 N/A 4/ 9 HUDSON CANYON 1200 71 72 150/ 8/ 8 1012.2 5/ 7 EXECUTION ROCKS 1200 68 70 330/ 4/ 6 N/A WESTERN LI SOUND 1200 69 30/ 2/ 4 N/A 0 CENTRAL LI SOUND 1100 70 70 210/ 4/ 6 N/A 1/ 2 EASTERN LI SOUND 1100 70 68 170/ 8/ 10 N/A ROBBINS REEF 1200 69 CALM / 1 1011.7 $$ >>>>>>>>>>>>>>>>>>>>>>>>>>>> KEY <<<<<<<<<<<<<<<<<<<<<<<<<<< > < > SKY/WX - SKY CONDITION/PRESENT WEATHER < > TMP - TEMPERATURE IN FAHRENHEIT < > DP - DEWPOINT IN FAHRENHEIT < > RH - RELATIVE HUMIDITY IN PERCENT < > WIND - DIRECTION AND SPEED IN MPH < > PRES - MEAN SEA LEVEL PRESSURE IN INCHES OF HG < > WCI - WIND CHILL INDEX < > VSB - VISIBILITY IN MILES < > HX - HEAT INDEX < > TC - TEMPERATURE IN CELSIUS < > VRB - VARIABLE WIND DIRECTION < > < >>>>>>>>>>>>>>>>>>>>>>>>>>>> KEY <<<<<<<<<<<<<<<<<<<<<<<<<<<

USA.gov is the U.S. government's official web portal to all federal, state and local government web resources and services.